NOZ8GB ENGM-EDDB

Flight info

Callsign NOZ8GB
Flight time 1h 30m
Altitude 36000
Route VIPPA DCT ARTOR DCT SALLO M44 BINZE DCT USEDU Z14 BEKBA T280 KETAP KETAP1R
Aircraft B738/M-SDE2E3GHIJ1LRWXY/LB1

Departure

Time 2026-05-07 20:23
Airport Oslo-Gardermoen International Airport (ENGM)

Arrival

Time 2026-05-07 21:53
Airport Berlin Brandenburg Airport (EDDB)
Time Latitude Longitude Altitude Speed Heading
2026-05-07 19:41 60.19679 11.10226 679 ft 0 kts 286°
2026-05-07 20:11 60.19679 11.10229 657 ft 2 kts 286°
2026-05-07 20:11 60.19672 11.10278 683 ft 4 kts 286°
2026-05-07 20:11 60.19668 11.10308 681 ft 0 kts 286°
2026-05-07 20:17 60.19670 11.10304 681 ft 1 kts 315°
2026-05-07 20:17 60.19676 11.10306 680 ft 1 kts
2026-05-07 20:18 60.19688 11.10332 680 ft 4 kts 57°
2026-05-07 20:18 60.19707 11.10398 683 ft 7 kts 60°
2026-05-07 20:18 60.19745 11.10491 681 ft 10 kts 28°
2026-05-07 20:18 60.19825 11.10541 681 ft 13 kts 16°
2026-05-07 20:19 60.19877 11.10598 682 ft 7 kts 68°
2026-05-07 20:19 60.19872 11.10698 683 ft 7 kts 99°
2026-05-07 20:19 60.19859 11.10793 683 ft 7 kts 105°
2026-05-07 20:19 60.19846 11.10886 682 ft 7 kts 105°
2026-05-07 20:20 60.19829 11.11003 682 ft 10 kts 105°
2026-05-07 20:20 60.19807 11.11159 678 ft 13 kts 106°
2026-05-07 20:20 60.19774 11.11355 679 ft 16 kts 115°
2026-05-07 20:20 60.19731 11.11559 681 ft 16 kts 106°
2026-05-07 20:21 60.19701 11.11764 682 ft 12 kts 111°
2026-05-07 20:21 60.19643 11.11884 683 ft 12 kts 150°
2026-05-07 20:21 60.19569 11.11927 683 ft 9 kts 187°
2026-05-07 20:21 60.19535 11.11908 682 ft 5 kts 197°
2026-05-07 20:22 60.19473 11.11873 682 ft 17 kts 195°
2026-05-07 20:22 60.19130 11.11677 679 ft 86 kts 196°
2026-05-07 20:22 60.18345 11.11221 682 ft 146 kts 196°
2026-05-07 20:22 60.17251 11.10542 959 ft 170 kts 199°
2026-05-07 20:23 60.16173 11.09858 1913 ft 157 kts 197°
2026-05-07 20:23 60.15093 11.09236 2545 ft 168 kts 194°
2026-05-07 20:23 60.13866 11.08581 2894 ft 198 kts 194°
2026-05-07 20:23 60.12437 11.08025 3118 ft 221 kts 186°
2026-05-07 20:24 60.10857 11.07703 3521 ft 233 kts 185°
2026-05-07 20:24 60.09199 11.07370 3828 ft 252 kts 185°
2026-05-07 20:24 60.07417 11.06995 4462 ft 261 kts 186°
2026-05-07 20:24 60.05610 11.06561 5359 ft 263 kts 191°
2026-05-07 20:25 60.03844 11.05539 6214 ft 266 kts 199°
2026-05-07 20:25 60.02098 11.04247 7010 ft 269 kts 201°
2026-05-07 20:25 60.00344 11.02904 7856 ft 271 kts 201°
2026-05-07 20:25 59.98577 11.01560 8677 ft 273 kts 201°
2026-05-07 20:26 59.96793 11.00220 9533 ft 275 kts 201°
2026-05-07 20:26 59.94996 10.98888 10339 ft 277 kts 202°
2026-05-07 20:26 59.93126 10.97510 10638 ft 299 kts 202°
2026-05-07 20:26 59.91101 10.96028 10874 ft 319 kts 202°
2026-05-07 20:27 59.88981 10.94489 11435 ft 328 kts 202°
2026-05-07 20:27 59.86823 10.92932 12168 ft 332 kts 202°
2026-05-07 20:27 59.84640 10.91363 12943 ft 336 kts 202°
2026-05-07 20:27 59.82432 10.89780 13764 ft 338 kts 203°
2026-05-07 20:28 59.80209 10.88187 14527 ft 341 kts 203°
2026-05-07 20:28 59.77966 10.86583 15271 ft 344 kts 203°
2026-05-07 20:28 59.75703 10.84968 16023 ft 347 kts 203°
2026-05-07 20:28 59.73416 10.83338 16773 ft 351 kts 204°
2026-05-07 20:29 59.71105 10.81692 17479 ft 355 kts 204°
2026-05-07 20:29 59.68765 10.80028 18191 ft 359 kts 204°
2026-05-07 20:29 59.66397 10.78347 18834 ft 363 kts 204°
2026-05-07 20:29 59.64007 10.76654 19451 ft 367 kts 204°
2026-05-07 20:30 59.61588 10.74943 20059 ft 371 kts 204°
2026-05-07 20:30 59.59144 10.73215 20642 ft 375 kts 204°
2026-05-07 20:30 59.56673 10.71471 21226 ft 379 kts 204°
2026-05-07 20:30 59.54173 10.69727 21806 ft 384 kts 203°
2026-05-07 20:31 59.51560 10.68394 22388 ft 392 kts 197°
2026-05-07 20:31 59.48863 10.67422 22951 ft 397 kts 194°
2026-05-07 20:31 59.46119 10.66551 23488 ft 401 kts 194°
2026-05-07 20:31 59.43348 10.65676 23931 ft 406 kts 194°
2026-05-07 20:32 59.40554 10.64764 24387 ft 408 kts 194°
2026-05-07 20:32 59.37746 10.63814 24898 ft 410 kts 195°
2026-05-07 20:32 59.34933 10.62837 25382 ft 412 kts 195°
2026-05-07 20:32 59.32106 10.61842 25837 ft 414 kts 195°
2026-05-07 20:33 59.29265 10.60834 26253 ft 417 kts 195°
2026-05-07 20:33 59.26443 10.59833 26689 ft 419 kts 195°
2026-05-07 20:33 59.23566 10.58815 27124 ft 421 kts 195°
2026-05-07 20:33 59.20675 10.57794 27548 ft 424 kts 195°
2026-05-07 20:34 59.17764 10.56769 27961 ft 426 kts 195°
2026-05-07 20:34 59.14840 10.55741 28353 ft 428 kts 195°
2026-05-07 20:34 59.11903 10.54710 28763 ft 430 kts 195°
2026-05-07 20:34 59.08947 10.53675 29157 ft 433 kts 195°
2026-05-07 20:35 59.05966 10.52730 29533 ft 438 kts 189°
2026-05-07 20:35 59.02885 10.53184 29832 ft 454 kts 169°
2026-05-07 20:35 58.99897 10.55277 30327 ft 457 kts 162°
2026-05-07 20:35 58.96927 10.57641 30817 ft 455 kts 162°
2026-05-07 20:36 58.94048 10.59962 31198 ft 454 kts 161°
2026-05-07 20:36 58.91128 10.62307 31558 ft 455 kts 162°
2026-05-07 20:36 58.88204 10.64630 31939 ft 454 kts 162°
2026-05-07 20:36 58.85289 10.66920 32439 ft 450 kts 161°
2026-05-07 20:37 58.82405 10.69168 32948 ft 446 kts 162°
2026-05-07 20:37 58.79518 10.71403 33275 ft 447 kts 162°
2026-05-07 20:37 58.76627 10.73628 33560 ft 449 kts 162°
2026-05-07 20:37 58.73729 10.75852 33920 ft 448 kts 162°
2026-05-07 20:38 58.70831 10.78074 34242 ft 448 kts 161°
2026-05-07 20:38 58.67937 10.80288 34546 ft 447 kts 161°
2026-05-07 20:38 58.65050 10.82495 34894 ft 445 kts 161°
2026-05-07 20:38 58.62175 10.84689 35173 ft 446 kts 161°
2026-05-07 20:39 58.59273 10.86897 35155 ft 451 kts 161°
2026-05-07 20:39 58.53462 10.91312 35153 ft 445 kts 161°
2026-05-07 20:40 58.47749 10.95641 35166 ft 440 kts 161°
2026-05-07 20:40 58.42045 10.99943 35172 ft 441 kts 161°
2026-05-07 20:41 58.36368 11.04209 35166 ft 442 kts 161°
2026-05-07 20:41 58.30642 11.08499 35168 ft 443 kts 161°
2026-05-07 20:42 58.24909 11.12779 35166 ft 443 kts 161°
2026-05-07 20:42 58.19164 11.17053 35154 ft 444 kts 161°
2026-05-07 20:43 58.13416 11.21315 35171 ft 444 kts 161°
2026-05-07 20:43 58.07659 11.25568 35165 ft 444 kts 161°
2026-05-07 20:44 58.01906 11.29804 35169 ft 444 kts 161°
2026-05-07 20:44 57.96147 11.34030 35154 ft 444 kts 161°
2026-05-07 20:45 57.90397 11.38234 35163 ft 443 kts 161°
2026-05-07 20:45 57.84658 11.42416 35163 ft 442 kts 161°
2026-05-07 20:46 57.78932 11.46575 35163 ft 441 kts 161°
2026-05-07 20:46 57.73215 11.50712 35152 ft 440 kts 161°
2026-05-07 20:47 57.67506 11.54830 35155 ft 439 kts 161°
2026-05-07 20:47 57.61812 11.58921 35163 ft 438 kts 160°
2026-05-07 20:48 57.56128 11.62995 35163 ft 437 kts 160°
2026-05-07 20:48 57.50452 11.67048 35166 ft 437 kts 160°
2026-05-07 20:49 57.44818 11.71057 35166 ft 436 kts 160°
2026-05-07 20:49 57.39148 11.75079 35166 ft 436 kts 160°
2026-05-07 20:50 57.33484 11.79082 35168 ft 436 kts 160°
2026-05-07 20:50 57.27815 11.83078 35165 ft 436 kts 160°
2026-05-07 20:51 57.22153 11.87054 35169 ft 435 kts 160°
2026-05-07 20:51 57.16489 11.91019 35169 ft 435 kts 160°
2026-05-07 20:52 57.10823 11.94971 35164 ft 435 kts 160°
2026-05-07 20:52 57.05155 11.98913 35169 ft 435 kts 159°
2026-05-07 20:53 56.99491 12.02839 35169 ft 435 kts 159°
2026-05-07 20:53 56.93820 12.06757 35160 ft 436 kts 160°
2026-05-07 20:54 56.88143 12.10666 35167 ft 436 kts 160°
2026-05-07 20:54 56.82463 12.14566 35171 ft 436 kts 160°
2026-05-07 20:55 56.76780 12.18453 35168 ft 436 kts 159°
2026-05-07 20:55 56.71094 12.22331 35169 ft 436 kts 159°
2026-05-07 20:56 56.65407 12.26197 35166 ft 436 kts 159°
2026-05-07 20:56 56.59714 12.30054 35163 ft 436 kts 159°
2026-05-07 20:57 56.54021 12.33899 35159 ft 437 kts 159°
2026-05-07 20:57 56.48365 12.37707 35179 ft 437 kts 159°
2026-05-07 20:58 56.42670 12.41529 35163 ft 436 kts 159°
2026-05-07 20:58 56.36981 12.45335 35169 ft 436 kts 159°
2026-05-07 20:59 56.31297 12.49126 35160 ft 435 kts 159°
2026-05-07 20:59 56.25616 12.52901 35159 ft 435 kts 159°
2026-05-07 21:00 56.20901 12.56027 35178 ft 434 kts 159°
2026-05-07 21:00 56.15232 12.59772 35173 ft 434 kts 159°
2026-05-07 21:01 56.09571 12.63501 35179 ft 433 kts 159°
2026-05-07 21:01 56.03915 12.67216 35176 ft 433 kts 159°
2026-05-07 21:02 55.98262 12.70917 35170 ft 432 kts 159°
2026-05-07 21:02 55.92617 12.74601 35172 ft 432 kts 159°
2026-05-07 21:03 55.86964 12.78279 35182 ft 432 kts 159°
2026-05-07 21:03 55.81319 12.81940 35183 ft 432 kts 159°
2026-05-07 21:04 55.75668 12.85595 35179 ft 432 kts 159°
2026-05-07 21:04 55.70014 12.89239 35179 ft 432 kts 159°
2026-05-07 21:05 55.64362 12.92871 35186 ft 432 kts 159°
2026-05-07 21:05 55.58707 12.96493 35179 ft 432 kts 159°
2026-05-07 21:06 55.53048 13.00108 35177 ft 432 kts 159°
2026-05-07 21:06 55.47385 13.03713 35174 ft 433 kts 159°
2026-05-07 21:07 55.41723 13.07308 35171 ft 433 kts 159°
2026-05-07 21:07 55.36059 13.10893 35175 ft 433 kts 159°
2026-05-07 21:08 55.30431 13.14444 35168 ft 433 kts 159°
2026-05-07 21:08 55.24769 13.18005 35169 ft 432 kts 159°
2026-05-07 21:09 55.19100 13.21561 35168 ft 432 kts 159°
2026-05-07 21:09 55.13433 13.25104 35169 ft 432 kts 159°
2026-05-07 21:10 55.07767 13.28637 35174 ft 433 kts 159°
2026-05-07 21:10 55.02100 13.32160 35175 ft 432 kts 159°
2026-05-07 21:11 54.96427 13.35677 35172 ft 433 kts 159°
2026-05-07 21:11 54.87749 13.39890 35183 ft 434 kts 170°
2026-05-07 21:12 54.81763 13.41338 35171 ft 434 kts 171°
2026-05-07 21:12 54.75789 13.42887 35178 ft 434 kts 170°
2026-05-07 21:13 54.69847 13.44686 35164 ft 433 kts 163°
2026-05-07 21:13 54.64242 13.48432 35172 ft 432 kts 156°
2026-05-07 21:14 54.58717 13.52469 34887 ft 430 kts 156°
2026-05-07 21:14 54.55989 13.54438 34601 ft 422 kts 156°
2026-05-07 21:14 54.53288 13.56370 34212 ft 419 kts 156°
2026-05-07 21:15 54.50607 13.58271 33784 ft 415 kts 156°
2026-05-07 21:15 54.47947 13.60149 33367 ft 411 kts 157°
2026-05-07 21:15 54.45311 13.62003 32989 ft 407 kts 157°
2026-05-07 21:15 54.42700 13.63836 32585 ft 404 kts 157°
2026-05-07 21:16 54.40112 13.65652 32220 ft 400 kts 158°
2026-05-07 21:16 54.37550 13.67446 31834 ft 397 kts 158°
2026-05-07 21:16 54.35003 13.69228 31466 ft 393 kts 158°
2026-05-07 21:16 54.32479 13.70991 31108 ft 390 kts 159°
2026-05-07 21:17 54.29971 13.72741 30749 ft 387 kts 159°
2026-05-07 21:17 54.27485 13.74473 30400 ft 385 kts 159°
2026-05-07 21:17 54.25016 13.76190 30012 ft 382 kts 159°
2026-05-07 21:17 54.22568 13.77892 29631 ft 378 kts 159°
2026-05-07 21:18 54.20149 13.79571 29275 ft 373 kts 159°
2026-05-07 21:18 54.17757 13.81229 28912 ft 369 kts 159°
2026-05-07 21:18 54.15392 13.82867 28551 ft 365 kts 159°
2026-05-07 21:18 54.13049 13.84487 28189 ft 361 kts 159°
2026-05-07 21:19 54.08489 13.87635 28087 ft 354 kts 158°
2026-05-07 21:19 54.06160 13.89240 28114 ft 368 kts 158°
2026-05-07 21:19 54.03750 13.90898 28105 ft 379 kts 158°
2026-05-07 21:20 53.98850 13.94265 28062 ft 377 kts 158°
2026-05-07 21:20 53.96383 13.95739 27940 ft 376 kts 167°
2026-05-07 21:20 53.93807 13.96422 27642 ft 373 kts 177°
2026-05-07 21:21 53.91217 13.96325 27381 ft 372 kts 184°
2026-05-07 21:21 53.88643 13.95971 27120 ft 372 kts 185°
2026-05-07 21:21 53.86101 13.95595 26864 ft 372 kts 185°
2026-05-07 21:21 53.83521 13.95222 26604 ft 372 kts 185°
2026-05-07 21:22 53.80907 13.94863 26351 ft 372 kts 185°
2026-05-07 21:22 53.78361 13.94526 26103 ft 372 kts 184°
2026-05-07 21:22 53.75783 13.94192 25850 ft 371 kts 184°
2026-05-07 21:22 53.73215 13.93864 25598 ft 370 kts 184°
2026-05-07 21:23 53.70653 13.93537 25346 ft 368 kts 184°
2026-05-07 21:23 53.68104 13.93213 25096 ft 367 kts 184°
2026-05-07 21:23 53.65570 13.92885 24826 ft 363 kts 186°
2026-05-07 21:23 53.63107 13.92048 24568 ft 361 kts 199°
2026-05-07 21:24 53.60807 13.90390 24341 ft 359 kts 210°
2026-05-07 21:24 53.58726 13.88085 24119 ft 358 kts 216°
2026-05-07 21:24 53.56708 13.85621 23878 ft 358 kts 217°
2026-05-07 21:24 53.54705 13.83139 23630 ft 358 kts 217°
2026-05-07 21:25 53.52699 13.80655 23352 ft 358 kts 217°
2026-05-07 21:25 53.50694 13.78185 23075 ft 357 kts 217°
2026-05-07 21:25 53.48692 13.75733 22788 ft 356 kts 217°
2026-05-07 21:25 53.46693 13.73295 22532 ft 355 kts 217°
2026-05-07 21:26 53.44698 13.70872 22255 ft 353 kts 216°
2026-05-07 21:26 53.42709 13.68462 21992 ft 352 kts 216°
2026-05-07 21:26 53.40729 13.66069 21731 ft 350 kts 216°
2026-05-07 21:26 53.38756 13.63688 21465 ft 349 kts 216°
2026-05-07 21:27 53.36793 13.61323 21202 ft 347 kts 216°
2026-05-07 21:27 53.34844 13.58976 21057 ft 342 kts 216°
2026-05-07 21:27 53.32923 13.56667 20916 ft 338 kts 216°
2026-05-07 21:27 53.31012 13.54372 20801 ft 339 kts 216°
2026-05-07 21:28 53.29085 13.52060 20677 ft 342 kts 216°
2026-05-07 21:28 53.27144 13.49735 20624 ft 343 kts 216°
2026-05-07 21:28 53.25205 13.47414 20599 ft 342 kts 216°
2026-05-07 21:28 53.23271 13.45102 20567 ft 342 kts 216°
2026-05-07 21:29 53.21341 13.42798 20564 ft 340 kts 216°
2026-05-07 21:29 53.19417 13.40503 20564 ft 339 kts 216°
2026-05-07 21:29 53.17498 13.38218 20553 ft 339 kts 216°
2026-05-07 21:29 53.15583 13.35938 20555 ft 338 kts 216°
2026-05-07 21:30 53.13674 13.33669 20556 ft 337 kts 216°
2026-05-07 21:30 53.11764 13.31401 20551 ft 337 kts 216°
2026-05-07 21:30 53.09857 13.29140 20551 ft 337 kts 216°
2026-05-07 21:30 53.07947 13.26877 20553 ft 337 kts 216°
2026-05-07 21:31 53.06036 13.24615 20555 ft 337 kts 216°
2026-05-07 21:31 53.04123 13.22353 20556 ft 338 kts 216°
2026-05-07 21:31 53.02206 13.20090 20553 ft 338 kts 216°
2026-05-07 21:31 53.00286 13.17825 20550 ft 339 kts 216°
2026-05-07 21:32 52.98365 13.15561 20553 ft 339 kts 216°
2026-05-07 21:32 52.96440 13.13296 20555 ft 339 kts 216°
2026-05-07 21:32 52.94513 13.11031 20553 ft 340 kts 216°
2026-05-07 21:32 52.92589 13.08771 20430 ft 339 kts 216°
2026-05-07 21:33 52.90694 13.06549 20092 ft 337 kts 216°
2026-05-07 21:33 52.88789 13.04317 19761 ft 334 kts 216°
2026-05-07 21:33 52.86897 13.02102 19421 ft 332 kts 216°
2026-05-07 21:33 52.85017 12.99906 19085 ft 330 kts 216°
2026-05-07 21:34 52.83148 12.97723 18748 ft 328 kts 216°
2026-05-07 21:34 52.81288 12.95552 18407 ft 327 kts 216°
2026-05-07 21:34 52.79436 12.93393 18025 ft 325 kts 216°
2026-05-07 21:34 52.77593 12.91247 17665 ft 323 kts 216°
2026-05-07 21:35 52.75763 12.89119 17322 ft 321 kts 216°
2026-05-07 21:35 52.73943 12.87005 16969 ft 318 kts 216°
2026-05-07 21:35 52.72139 12.84910 16630 ft 316 kts 216°
2026-05-07 21:35 52.70346 12.82831 16297 ft 314 kts 216°
2026-05-07 21:36 52.68567 12.80769 15987 ft 312 kts 216°
2026-05-07 21:36 52.66799 12.78722 15662 ft 310 kts 216°
2026-05-07 21:36 52.65040 12.76689 15335 ft 308 kts 216°
2026-05-07 21:36 52.63292 12.74672 15016 ft 306 kts 216°
2026-05-07 21:37 52.61498 12.72800 14688 ft 306 kts 205°
2026-05-07 21:37 52.59465 12.71816 14362 ft 305 kts 191°
2026-05-07 21:37 52.57374 12.71244 14038 ft 304 kts 189°
2026-05-07 21:37 52.55284 12.70723 13665 ft 304 kts 189°
2026-05-07 21:38 52.53200 12.70206 13320 ft 302 kts 189°
2026-05-07 21:38 52.51127 12.69681 12988 ft 301 kts 189°
2026-05-07 21:38 52.49063 12.69148 12668 ft 299 kts 189°
2026-05-07 21:38 52.47015 12.68612 12350 ft 297 kts 189°
2026-05-07 21:39 52.44979 12.68076 12040 ft 296 kts 189°
2026-05-07 21:39 52.42952 12.67539 11731 ft 294 kts 189°
2026-05-07 21:39 52.40939 12.67004 11417 ft 293 kts 189°
2026-05-07 21:39 52.38933 12.66471 11104 ft 292 kts 189°
2026-05-07 21:40 52.36932 12.65940 10791 ft 290 kts 189°
2026-05-07 21:40 52.34942 12.65411 10484 ft 289 kts 189°
2026-05-07 21:40 52.32979 12.64890 10348 ft 282 kts 189°
2026-05-07 21:40 52.31066 12.64382 10216 ft 275 kts 189°
2026-05-07 21:41 52.29205 12.63889 10090 ft 268 kts 189°
2026-05-07 21:41 52.27392 12.63410 9968 ft 260 kts 189°
2026-05-07 21:41 52.25629 12.62964 9847 ft 253 kts 184°
2026-05-07 21:41 52.23939 12.63405 9710 ft 243 kts 156°
2026-05-07 21:42 52.22393 12.64444 9500 ft 240 kts 157°
2026-05-07 21:42 52.20858 12.65454 9296 ft 237 kts 157°
2026-05-07 21:42 52.19380 12.66541 9039 ft 235 kts 144°
2026-05-07 21:42 52.18379 12.68545 8840 ft 227 kts 109°
2026-05-07 21:43 52.18179 12.71081 8626 ft 230 kts 82°
2026-05-07 21:43 52.18631 12.73616 8407 ft 238 kts 68°
2026-05-07 21:43 52.19265 12.76153 8149 ft 244 kts 68°
2026-05-07 21:43 52.19910 12.78703 7879 ft 243 kts 68°
2026-05-07 21:44 52.20546 12.81247 7619 ft 242 kts 68°
2026-05-07 21:44 52.21173 12.83786 7362 ft 241 kts 68°
2026-05-07 21:44 52.21793 12.86313 7131 ft 240 kts 68°
2026-05-07 21:44 52.22408 12.88829 6881 ft 238 kts 68°
2026-05-07 21:45 52.23020 12.91334 6635 ft 237 kts 69°
2026-05-07 21:45 52.23627 12.93827 6394 ft 236 kts 68°
2026-05-07 21:45 52.24225 12.96282 6271 ft 229 kts 68°
2026-05-07 21:45 52.24804 12.98666 6093 ft 226 kts 68°
2026-05-07 21:46 52.25383 13.01048 5857 ft 225 kts 68°
2026-05-07 21:46 52.25764 13.02621 5705 ft 225 kts 68°
2026-05-07 21:46 52.26344 13.05015 5373 ft 228 kts 68°
2026-05-07 21:46 52.26921 13.07401 5111 ft 224 kts 68°
2026-05-07 21:47 52.27488 13.09745 4844 ft 219 kts 68°
2026-05-07 21:47 52.28044 13.12032 4594 ft 214 kts 68°
2026-05-07 21:47 52.28596 13.14256 4356 ft 209 kts 68°
2026-05-07 21:47 52.29166 13.16389 4267 ft 197 kts 66°
2026-05-07 21:48 52.29690 13.18428 4064 ft 193 kts 68°
2026-05-07 21:48 52.30176 13.20447 3823 ft 190 kts 69°
2026-05-07 21:48 52.30646 13.22443 3580 ft 187 kts 69°
2026-05-07 21:48 52.31109 13.24422 3327 ft 186 kts 69°
2026-05-07 21:49 52.31567 13.26378 3084 ft 183 kts 69°
2026-05-07 21:49 52.32018 13.28304 2838 ft 180 kts 69°
2026-05-07 21:49 52.32461 13.30195 2577 ft 177 kts 69°
2026-05-07 21:49 52.32893 13.32038 2324 ft 169 kts 69°
2026-05-07 21:50 52.33301 13.33778 2116 ft 160 kts 69°
2026-05-07 21:50 52.33695 13.35452 1913 ft 152 kts 69°
2026-05-07 21:50 52.34057 13.36995 1689 ft 139 kts 68°
2026-05-07 21:50 52.34395 13.38430 1493 ft 132 kts 68°
2026-05-07 21:51 52.34724 13.39829 1323 ft 134 kts 68°
2026-05-07 21:51 52.35062 13.41266 1133 ft 136 kts 68°
2026-05-07 21:51 52.35401 13.42707 937 ft 136 kts 68°
2026-05-07 21:51 52.35744 13.44155 740 ft 138 kts 67°
2026-05-07 21:52 52.36087 13.45608 577 ft 137 kts 68°
2026-05-07 21:52 52.36428 13.47084 376 ft 141 kts 68°
2026-05-07 21:52 52.36786 13.48583 195 ft 142 kts 69°
2026-05-07 21:52 52.37119 13.49977 154 ft 110 kts 68°
2026-05-07 21:53 52.37319 13.50814 154 ft 49 kts 68°
2026-05-07 21:53 52.37413 13.51223 154 ft 20 kts 70°
2026-05-07 21:53 52.37450 13.51443 154 ft 20 kts 80°
2026-05-07 21:53 52.37449 13.51632 154 ft 12 kts 99°
2026-05-07 21:54 52.37439 13.51737 154 ft 9 kts 98°
2026-05-07 21:54 52.37430 13.51836 154 ft 9 kts 98°
2026-05-07 21:54 52.37423 13.51910 154 ft 6 kts 99°
2026-05-07 21:54 52.37404 13.51967 154 ft 6 kts 120°
2026-05-07 21:55 52.37378 13.52012 154 ft 6 kts 148°
2026-05-07 21:55 52.37342 13.52037 154 ft 6 kts 159°
2026-05-07 21:55 52.37306 13.52053 154 ft 5 kts 177°
2026-05-07 21:55 52.37270 13.52010 154 ft 9 kts 241°
2026-05-07 21:56 52.37241 13.51890 154 ft 13 kts 249°
2026-05-07 21:56 52.37207 13.51748 154 ft 13 kts 249°
2026-05-07 21:56 52.37175 13.51611 154 ft 13 kts 249°
2026-05-07 21:56 52.37137 13.51498 155 ft 10 kts 217°
2026-05-07 21:57 52.37087 13.51484 154 ft 6 kts 176°
2026-05-07 21:57 52.37048 13.51461 154 ft 6 kts 219°
2026-05-07 21:57 52.37025 13.51387 154 ft 9 kts 247°
2026-05-07 21:57 52.36998 13.51273 154 ft 12 kts 249°
2026-05-07 21:58 52.36962 13.51122 154 ft 16 kts 249°
2026-05-07 21:58 52.36924 13.50958 154 ft 15 kts 248°
2026-05-07 21:58 52.36886 13.50802 154 ft 14 kts 249°
2026-05-07 21:58 52.36856 13.50676 154 ft 8 kts 249°
2026-05-07 21:59 52.36835 13.50642 154 ft 4 kts 193°
2026-05-07 21:59 52.36809 13.50658 154 ft 4 kts 156°
2026-05-07 21:59 52.36783 13.50675 154 ft 3 kts 159°
2026-05-07 21:59 52.36776 13.50680 154 ft 0 kts 159°
2026-05-07 22:00 52.36772 13.50682 154 ft 0 kts 159°